Location: Litvinovka
(48.6667°N, 34.3500°E)
Time: 10:52:29
(UTC+00:00)

Cosmos 2369 Rocket - Pass Details

Date: 18 September 2020
Orbit: 827 x 854 km, 71.0° (Epoch: 30 October)

Event Time Altitude Azimuth Distance (km) Brightness Sun altitude
Exits shadow 22:59:47 26° 347° (NNW) 1,594 3.9 -36.8°
Drops below altitude 10° 23:02:57 10° 15° (NNE) 2,472 5.3 -36.5°
Sets 23:05:41 0° 25° (NNE) 3,415 6.3 -36.3°
